Weather observations for the past three days for
Visalia, Visalia Municipal Airport
Imperial (Metric)
Date Time (pdt) Wind (mph) Vis. (mi.) Weather Sky Cond. Temperature (ºF) Relative Humidity Wind Chill (°F) Heat Index (°F) Pressure Precipitation (in)
Air Dwpt 6 hour altimeter (in) sea level (mb) 1 hr 3 hr 6 hr
Max. Min.
04 18:56 NE 5 10.00 Partly Cloudy SCT095 SCT110 64 44.1 48% 29.92 1013.2
04 17:56 NE 7 10.00 Overcast OVC080 64 46 52% 29.94 1013.9
04 16:56 N 7 10.00 Overcast OVC080 64 46 64.9 59 52% 29.95 1014.1
04 15:56 NE 8 10.00 Overcast OVC070 64 46 52% 29.96 1014.6
04 14:56 N 7 10.00 Overcast OVC070 63 46 54% 29.98 1015.3
04 13:56 N 3 10.00 Overcast OVC060 62.1 46 56% 30 1015.9
04 12:56 NE 6 10.00 Overcast OVC060 61 46 58% 30 1016.0
04 11:56 N 5 10.00 Overcast OVC055 60.1 46 60% 30.01 1016.4
04 10:56 N 3 10.00 Overcast OVC049 59 46 59 57 62% 30.02 1016.5
04 09:56 NE 3 10.00 Overcast FEW035 OVC049 57.9 46 65% 30 1016.0
04 08:56 NE 7 10.00 Overcast FEW049 OVC060 57.9 46.9 67% 30 1015.7
04 07:56 N 9 10.00 Overcast FEW043 OVC050 57.9 45 62% 30 1015.6
04 06:56 N 6 10.00 Overcast OVC041 57.9 46.9 67% 29.98 1015.3
04 05:56 NW 6 10.00 Overcast OVC041 57.9 46.9 67% 29.97 1014.6
04 04:56 NW 12 10.00 Overcast OVC039 59 46 64 59 62% 29.96 1014.3
04 03:56 NW 9 10.00 Overcast OVC037 59 46 62% 29.96 1014.3
04 02:56 N 10 10.00 Overcast OVC037 60.1 46 60% 29.95 1013.9
04 01:56 NW 8 10.00 Overcast OVC039 61 46 58% 29.95 1014.0
04 00:56 NW 13 10.00 Overcast OVC035 62.1 45 54% 29.95 1014.3
03 23:56 W 5 10.00 Overcast OVC041 63 45 52% 29.95 1014.0
03 22:56 N 3 10.00 Overcast BKN050 BKN065 OVC110 64 46.9 78.1 64 54% 29.94 1013.6
03 21:56 NW 15 10.00 Overcast BKN070 OVC100 66 46.9 50% 29.91 1012.8
03 20:56 SW 8 10.00 Mostly Cloudy SCT080 BKN100 66 43 43% 29.88 1011.7
03 19:56 SW 14 10.00 Partly Cloudy SCT065 69.1 42.1 38% 29.84 1010.5
03 18:56 NW 3 10.00 Mostly Cloudy BKN070 73.9 50 43% 29.82 1009.7
03 17:56 NW 5 10.00 Overcast OVC065 77 50 39% 78 29.81 1009.5
03 16:56 Vrbl 5 10.00 A Few Clouds FEW060 77 48.9 78.1 68 37% 78 29.81 1009.4
03 15:56 Calm 10.00 Mostly Cloudy BKN055 73.9 48.9 41% 29.83 1010.0
03 14:56 Vrbl 5 10.00 A Few Clouds FEW050 75 50 42% 78 29.85 1010.6
03 13:56 NW 6 10.00 Overcast OVC046 71.1 50 47% 29.86 1011.1
03 12:56 N 6 10.00 Mostly Cloudy BKN042 70 51.1 51% 29.89 1011.8
03 11:56 Vrbl 5 10.00 Overcast OVC038 71.1 51.1 49% 29.91 1012.6
03 10:56 Vrbl 3 10.00 A Few Clouds FEW032 68 51.1 68 55 55% 29.91 1012.8
03 09:56 N 8 10.00 Fair CLR 64.9 52 63% 29.91 1012.6
03 08:56 NW 9 10.00 Mostly Cloudy BKN021 62.1 52 70% 29.9 1012.3
03 07:56 NW 7 10.00 Overcast OVC023 57.9 52 81% 29.89 1011.9
03 06:56 Calm 10.00 Fair CLR 55 52 90% 29.86 1011.1
03 05:56 Calm 10.00 Fair CLR 55 52 90% 29.83 1010.1
03 04:56 W 3 10.00 Fair CLR 57 53.1 69.1 57 87% 29.82 1009.7
03 03:56 NW 5 10.00 Fair CLR 59 53.1 81% 29.82 1009.5
03 02:56 W 7 10.00 Fair CLR 60.1 54 80% 29.81 1009.4
03 01:56 NW 9 10.00 Fair CLR 62.1 55.9 80% 29.81 1009.1
03 00:56 NW 8 10.00 Fair CLR 64.9 57 76% 29.8 1009.0
02 23:56 NW 8 10.00 Fair CLR 66.9 57.9 73% 29.8 1008.9
02 22:56 NW 10 10.00 Fair CLR 69.1 57.9 90 69.1 68% 29.8 1009.0
02 21:56 NW 12 10.00 Fair CLR 73 57.9 59% 29.79 1008.5
02 20:56 W 10 10.00 Fair CLR 75.9 57 52% 78 29.76 1007.7
02 19:56 W 7 10.00 Fair CLR 81 46 29% 80 29.75 1007.2
02 18:56 N 5 10.00 Fair CLR 84.9 48.9 29% 83 29.74 1006.9
02 17:56 N 7 10.00 Fair CLR 88 46.9 24% 85 29.74 1007.0
02 16:56 NW 8 10.00 Fair CLR 90 48 90 75 24% 87 29.75 1007.1
02 15:56 Calm 10.00 Fair CLR 89.1 48.9 25% 86 29.77 1007.9
02 14:56 Vrbl 5 10.00 Fair CLR 88 50 27% 85 29.81 1009.2
02 13:56 NW 6 10.00 Fair CLR 86 48 27% 83 29.84 1010.2
02 12:56 N 5 10.00 Fair CLR 82.9 54 37% 82 29.86 1011.0
02 11:56 Vrbl 3 10.00 Fair CLR 80.1 57 45% 80 29.88 1011.7
02 10:56 Calm 10.00 Fair CLR 75 57.9 75 55.9 55% 78 29.9 1012.3
02 09:56 E 6 9.00 Fair CLR 73 57 57% 29.9 1012.3
02 08:56 Vrbl 5 10.00 Fair CLR 66 55.9 70% 29.92 1012.9
02 07:56 S 3 10.00 Fair CLR 61 55 81% 29.9 1012.4
02 06:56 SE 3 9.00 Fair CLR 57.9 55 90% 29.88 1011.6
02 05:56 SE 6 9.00 Fair CLR 55.9 55 97% 29.85 1010.8
02 04:56 Calm 10.00 Fair CLR 57.9 55.9 71.1 57.9 93% 29.85 1010.5
02 03:56 Calm 10.00 Fair CLR 61 57 87% 29.85 1010.5
02 02:56 NW 3 10.00 Fair CLR 63 57 81% 29.85 1010.5
02 01:56 Calm 10.00 Fair CLR 63 55.9 78% 29.87 1011.3
02 00:56 Calm 10.00 Fair CLR 66 55.9 70% 29.88 1011.6
01 23:56 Calm 10.00 Fair CLR 66 57 73% 29.87 1011.3
01 22:56 Calm 10.00 Fair CLR 71.1 55.9 88 70 59% 29.86 1010.9
01 21:56 NW 5 10.00 Fair CLR 73.9 54 50% 29.85 1010.6
01 20:56 NW 6 10.00 Fair CLR 75.9 54 47% 78 29.83 1010.0
01 19:56 NW 8 10.00 Fair CLR 80.1 53.1 39% 80 29.81 1009.4
Date Time (pdt) Wind (mph) Vis. (mi.) Weather Sky Cond. Air Dwpt Max. Min. Relative Humidity Wind Chill (°F) Heat Index (°F) altimeter (in) sea level (mb) 1 hr 3 hr 6 hr
6 hour
Temperature (ºF) Pressure Precipitation (in)